星链-37594(STARLINK-37594)

导读

STARLINK-37594(NORAD 100484)是SpaceX星链星座的低轨通信卫星,属于V2 Mini批次,2025年5月随猎鹰9号火箭由B1090-4助推器发射入轨,为Group 6-67任务组28颗卫星之一。该卫星运行于约550公里高、倾角43°的近地轨道,设计寿命约5年,搭载相控阵天线与激光星间链路,单星带宽最高可达100Gbps,可向地面提供超1Gbps的高速互联网服务,为通信欠发达区域补全网络覆盖,同时其运行也被指出可能对光学与射电天文观测造成一定干扰。

基本信息
目录编号:
100484
目录名称:
STARLINK-37594
国际标识:
2026-196M
轨道中心:
EARTH
卫星名称:
星链-37594
卫星全名:
星链-37594(STARLINK-37594)
卫星状态:
在轨 (已飞行11 天)
发射日期:
2026-08-25 UTC
国别 :
美国 (US)
星等 :
--
轨道信息
数据来源 国际轨道数据
星历时间: 2026-09-05T06:07:33+0800
8小时前
查看轨道信息
半长轴: 6671.405km
偏心率: 0.0002843
轨道倾角: 53.159°
近地点辐角 51.590°
升交点赤经 319.648°
平近点角 308.538°
近地点: 291.371km
远地点: 295.165km
周期: 90.383分钟
每日圈数: 15.932239
详细信息
固有亮度:
5
最大亮度:
2.5
卫星平台:
Starlink V1.0
覆盖范围:
全球
运营商:
太空探索技术公司
运营商所在国:
美国
制造商(研发单位):
太空探索技术公司
制造商所在国:
美国
使用方式:
暂无
卫星简介
Starlink 计划是 SpaceX 推出的全球卫星互联网项目,通过发射低轨道卫星,为全球尤其是偏远地区提供高速、低延迟的互联网服务。自 2019 年起,Starlink 已部署数千颗卫星,旨在缩小全球数字鸿沟,推动互联网普及。该项目还为军事、航空等行业提供通信支持,带来广泛经济效益。
2D轨道图
3D轨道图
轨道高度分析图
轨道倾角分析图
轨道综合分析图
查看轨道综合分析图